User: anonymous   Login
Location: Chena
(64.8152°N, 147.9227°W)
Time: 19:50:45
(UTC+00:00)
Language:

A-11 Canister half - Orbit

View from above orbital plane
View from above orbital plane
View from above satellite
View from above satellite

Ground track
Ground track

The orbit data is extracted from the following two-line orbital elements,

1 00053U 60009E   21062.60570163 -.00000088  00000-0 -25385-4 0  9997
2 00053  47.2748 179.8010 0099931 127.6698 233.3205 12.17254700700136
Epoch (UTC): 03 March 2021 14:32:12
Eccentricity: 0.0099931
inclination: 47.2748°
perigee height: 1525 km
apogee height: 1684 km
right ascension of ascending node: 179.8010°
argument of perigee: 127.6698°
revolutions per day: 12.17254700
mean anomaly at epoch: 233.3205°
orbit number at epoch: 70013

The dashed part of the orbit path shows where the satellite is in the earth's shadow,  

DLR